EW5297 Weather Reports


Display with metric or nautical units.
time (UTC)temp
F
wind
direction
speed
MPH
gust
MPH
rain 1hr
in
rain 24hr
in
rain mn
in
humidity
%
barometer
mb
20260506184818 63 36 2.0 12.0 0.00 0.12 0.00 88 721.5
20260506183320 63 323 2.0 8.0 0.00 0.12 0.00 90 721.5
20260506181817 62 327 2.0 7.0 0.00 0.12 0.00 91 721.5
20260506180314 62 326 2.0 9.0 0.00 0.12 0.00 93 721.5
20260506174816 61 328 2.0 9.0 0.00 0.20 0.00 93 721.5
20260506173312 61 331 2.0 5.0 0.00 0.20 0.00 94 721.5
20260506171810 60 176 2.0 8.0 0.00 0.20 0.00 93 721.5
20260506170312 59 54 0.0 2.0 0.00 0.20 0.00 93 721.5
20260506164847 59 10 0.0 1.0 0.00 0.20 0.00 93 721.5
20260506163328 59 116 0.0 0.0 0.00 0.20 0.00 93 721.5
20260506161826 60 154 0.0 2.0 0.00 0.20 0.00 93 721.5
20260506160346 60 161 1.0 2.0 0.00 0.20 0.00 93 721.5
20260506154826 60 198 0.0 0.0 0.00 0.20 0.00 93 721.5
20260506153322 59 261 0.0 0.0 0.00 0.20 0.00 93 721.5
20260506151820 59 178 0.0 0.0 0.00 0.20 0.00 93 721.5
20260506150343 59 167 0.0 0.0 0.00 0.20 0.00 93 721.5
20260506144820 59 150 0.0 0.0 0.00 0.20 0.00 93 837.9
20260506143318 60 153 1.0 2.0 0.00 0.20 0.00 93
20260506141815 60 19 0.0 0.0 0.00 0.20 0.00 93
20260506140331 59 19 0.0 0.0 0.00 0.20 0.00 93 600.7
20260506134812 60 19 0.0 0.0 0.00 0.20 0.00 93
20260506133310 60 19 0.0 0.0 0.00 0.20 0.00 93
20260506131812 59 19 0.0 0.0 0.00 0.20 0.00 93
20260506130309 60 19 0.0 0.0 0.00 0.20 0.00 93
20260506124827 60 19 0.0 0.0 0.00 0.28 0.04 93
20260506123349 60 19 0.0 0.0 0.00 0.28 0.04 93 334.6
20260506121849 60 19 0.0 0.0 0.00 0.28 0.04 93 457.3
20260506120346 60 19 0.0 0.0 0.00 0.28 0.04 93 457.3
20260506114826 60 19 0.0 0.0 0.00 0.47 0.04 92 457.3
20260506113323 60 19 0.0 1.0 0.00 0.47 0.04 92 457.3
20260506111824 60 19 0.0 0.0 0.00 0.47 0.04 92 457.3
20260506110322 60 19 0.0 1.0 0.00 0.47 0.04 92 457.3
20260506104820 60 19 0.0 0.0 0.00 0.55 0.04 92 457.3
20260506103319 60 19 0.0 0.0 0.00 0.55 0.04 92 457.3
20260506101815 61 140 0.0 2.0 0.00 0.55 0.04 92 457.3
20260506100313 61 140 0.0 2.0 0.00 0.55 0.04 92 457.3
20260506094815 61 140 0.0 2.0 0.00 0.63 0.04 92 457.3
20260506093330 62 331 0.0 0.0 0.00 0.63 0.04 91 457.3
20260506091829 62 331 0.0 0.0 0.00 0.63 0.04 91 457.3
20260506090327 62 331 0.0 0.0 0.00 0.63 0.04 91 457.3
20260506084824 62 331 0.0 0.0 0.00 0.79 0.04 91 457.3
20260506083328 62 331 0.0 0.0 0.00 0.79 0.04 91 457.3
20260506081826 62 331 0.0 0.0 0.00 0.79 0.04 91 457.3
20260506080342 62 94 0.0 0.0 0.00 0.79 0.04 91 457.3
20260506073320 63 94 0.0 0.0 0.00 1.06 0.04 89 457.3
20260506071820 64 94 0.0 0.0 0.00 1.06 0.04 89 457.3
20260506070340 64 94 0.0 0.0 0.00 1.06 0.04 88 457.3
20260506061817 66 94 0.0 0.0 0.00 1.14 0.04 87 457.3
20260506060318 66 94 0.0 0.0 0.00 1.14 0.04 86 457.3
20260506050329 68 94 0.0 2.0 0.00 1.73 0.04 77 457.3
20260506044827 69 94 0.0 2.0 0.00 1.77 0.04 81 457.3
20260506043347 69 94 0.0 2.0 0.00 1.77 0.04 80 457.3
20260506041844 68 94 0.0 2.0 0.00 1.77 0.04 78 457.3
20260506040325 68 94 0.0 0.0 0.00 1.77 0.04 78 457.3
20260506034818 68 94 1.0 1.0 0.00 1.77 0.04 77 457.3
20260506033314 68 94 0.0 0.0 0.00 1.77 0.04 77 457.3
20260506031814 68 94 0.0 0.0 0.00 1.77 0.04 78 457.3
20260506030312 68 94 0.0 2.0 0.00 1.77 0.04 79 457.3
20260506024830 68 94 0.0 2.0 0.00 1.77 0.04 81 457.3
20260506023311 68 55 0.0 1.0 0.00 1.77 0.04 82 457.3
20260506021830 67 128 0.0 2.0 0.00 1.77 0.04 85 457.3
20260506020310 66 128 0.0 2.0 0.00 1.77 0.04 85 457.3
20260506014829 65 128 0.0 2.0 0.00 1.77 0.04 86 457.3
20260506013327 65 128 0.0 0.0 0.00 1.77 0.04 87 457.3
20260506011829 65 155 0.0 1.0 0.00 1.77 0.04 89 457.3
20260506010325 64 173 0.0 2.0 0.00 1.77 0.04 90 457.3
20260506004823 64 152 1.0 2.0 0.00 1.77 0.04 92 457.3
20260506003325 64 147 0.0 2.0 0.04 1.77 0.04 93 457.3
20260506001844 63 136 0.0 2.0 0.04 1.77 0.04 93 457.3
20260506000324 62 164 2.0 3.0 0.04 1.77 0.04 93 457.3
20260505234822 63 165 0.0 1.0 0.04 1.77 0.04 94 457.3
20260505233320 61 345 0.0 0.0 0.00 1.73 0.03 93 457.3
20260505231819 61 345 0.0 0.0 0.00 1.73 0.03 93 457.3
20260505230317 61 345 0.0 0.0 0.00 1.73 0.03 94 457.3
20260505224817 61 67 0.0 0.0 0.00 1.73 0.03 94 457.3